EN

Hourly Weather Dzikowo

Today, 21 October, Wednesday

Time Temperature Precipitation Wind Pressure Humidity
00:00 +10°C° 0.1 mm 3 mps 748 mmHg 79%
01:00 +9°C° 0.1 mm 3 mps 748 mmHg 80%
02:00 +10°C° 0.1 mm 3 mps 748 mmHg 83%
03:00 +10°C° 0.1 mm 3 mps 747 mmHg 87%
04:00 +10°C° 0.1 mm 3 mps 747 mmHg 90%
05:00 +10°C° 0.3 mm 3 mps 747 mmHg 90%
06:00 +10°C° 0.3 mm 3 mps 747 mmHg 91%
07:00 +10°C° 0.3 mm 3 mps 747 mmHg 92%
08:00 +10°C° 0.6 mm 3 mps 747 mmHg 92%
09:00 +10°C° 0.6 mm 3 mps 748 mmHg 93%
10:00 +10°C° 0.6 mm 3 mps 748 mmHg 93%
11:00 +10°C° 0 mm 3 mps 747 mmHg 88%
12:00 +11°C° 0 mm 3 mps 747 mmHg 83%
13:00 +11°C° 0 mm 4 mps 747 mmHg 78%
14:00 +11°C° 0 mm 4 mps 747 mmHg 78%
15:00 +11°C° 0 mm 3 mps 746 mmHg 77%
16:00 +11°C° 0 mm 3 mps 746 mmHg 77%
17:00 +11°C° 0 mm 3 mps 746 mmHg 78%
18:00 +11°C° 0 mm 3 mps 746 mmHg 79%
19:00 +10°C° 0 mm 3 mps 746 mmHg 80%
20:00 +10°C° 0 mm 4 mps 746 mmHg 79%
21:00 +10°C° 0 mm 4 mps 746 mmHg 78%
22:00 +9°C° 0 mm 5 mps 746 mmHg 78%
23:00 +10°C° 0 mm 5 mps 746 mmHg 75%

Tomorrow, 22 October, Thursday

Time Temperature Precipitation Wind Pressure Humidity
00:00 +12°C° 0 mm 5 mps 746 mmHg 72%
01:00 +12°C° 0 mm 5 mps 746 mmHg 69%
02:00 +12°C° 0 mm 5 mps 746 mmHg 71%
03:00 +12°C° 0 mm 5 mps 746 mmHg 72%
04:00 +12°C° 0 mm 5 mps 746 mmHg 74%
05:00 +12°C° 0 mm 5 mps 746 mmHg 77%
06:00 +12°C° 0 mm 5 mps 747 mmHg 81%
07:00 +12°C° 0 mm 5 mps 747 mmHg 84%
08:00 +13°C° 0 mm 5 mps 747 mmHg 80%
09:00 +14°C° 0 mm 5 mps 748 mmHg 77%
10:00 +15°C° 0 mm 5 mps 748 mmHg 74%
11:00 +16°C° 0 mm 5 mps 748 mmHg 70%
12:00 +17°C° 0 mm 5 mps 748 mmHg 67%
13:00 +19°C° 0 mm 5 mps 748 mmHg 64%
14:00 +17°C° 0 mm 5 mps 748 mmHg 67%
15:00 +18°C° 0 mm 4 mps 748 mmHg 69%
16:00 +17°C° 0 mm 4 mps 748 mmHg 72%
17:00 +17°C° 0 mm 4 mps 748 mmHg 74%
18:00 +15°C° 0 mm 4 mps 748 mmHg 77%
19:00 +15°C° 0 mm 4 mps 748 mmHg 79%
20:00 +14°C° 0 mm 4 mps 748 mmHg 80%
21:00 +14°C° 0 mm 4 mps 748 mmHg 81%
22:00 +14°C° 0 mm 4 mps 748 mmHg 82%
23:00 +14°C° 0 mm 4 mps 747 mmHg 79%

Day after tomorrow, 23 October, Friday

Time Temperature Precipitation Wind Pressure Humidity
00:00 +14°C° 0 mm 4 mps 747 mmHg 77%
01:00 +15°C° 0 mm 4 mps 747 mmHg 75%
02:00 +14°C° 0.2 mm 4 mps 747 mmHg 78%
03:00 +14°C° 0.2 mm 4 mps 747 mmHg 82%
04:00 +13°C° 0.2 mm 4 mps 746 mmHg 86%
05:00 +13°C° 0 mm 4 mps 746 mmHg 86%
06:00 +13°C° 0 mm 4 mps 746 mmHg 86%
07:00 +13°C° 0 mm 4 mps 746 mmHg 86%
08:00 +14°C° 0.1 mm 5 mps 746 mmHg 82%
09:00 +14°C° 0.1 mm 5 mps 747 mmHg 79%
10:00 +15°C° 0.1 mm 5 mps 747 mmHg 75%
11:00 +16°C° 0 mm 5 mps 747 mmHg 70%
12:00 +16°C° 0 mm 5 mps 747 mmHg 66%
13:00 +16°C° 0 mm 5 mps 747 mmHg 61%
14:00 +17°C° 0 mm 4 mps 747 mmHg 64%
15:00 +16°C° 0 mm 3 mps 747 mmHg 66%
16:00 +16°C° 0 mm 2 mps 747 mmHg 69%
17:00 +15°C° 0 mm 2 mps 747 mmHg 74%
18:00 +14°C° 0 mm 2 mps 747 mmHg 79%
19:00 +13°C° 0 mm 2 mps 747 mmHg 84%
20:00 +13°C° 0 mm 1 mps 747 mmHg 85%
21:00 +13°C° 0 mm 1 mps 746 mmHg 87%
22:00 +13°C° 0 mm 1 mps 746 mmHg 88%
23:00 +13°C° 0.3 mm 2 mps 746 mmHg 89%

24 October, Saturday

Time Temperature Precipitation Wind Pressure Humidity
00:00 +13°C° 0.3 mm 2 mps 746 mmHg 91%
01:00 +13°C° 0.3 mm 2 mps 746 mmHg 93%
02:00 +12°C° 0.1 mm 2 mps 745 mmHg 93%
03:00 +11°C° 0.1 mm 3 mps 745 mmHg 94%
04:00 +11°C° 0.1 mm 3 mps 745 mmHg 94%
05:00 +11°C° 0.5 mm 4 mps 745 mmHg 92%
06:00 +11°C° 0.5 mm 4 mps 745 mmHg 89%
07:00 +10°C° 0.5 mm 5 mps 745 mmHg 86%
08:00 +10°C° 0.5 mm 5 mps 745 mmHg 84%
09:00 +10°C° 0.5 mm 6 mps 746 mmHg 81%
10:00 +10°C° 0.5 mm 6 mps 746 mmHg 79%
11:00 +10°C° 0.1 mm 7 mps 746 mmHg 74%
12:00 +10°C° 0.1 mm 7 mps 747 mmHg 70%
13:00 +11°C° 0.1 mm 8 mps 747 mmHg 65%
14:00 +10°C° 0 mm 7 mps 748 mmHg 66%
15:00 +10°C° 0 mm 6 mps 748 mmHg 66%
16:00 +9°C° 0 mm 5 mps 749 mmHg 67%
17:00 +8°C° 0 mm 4 mps 749 mmHg 70%
18:00 +8°C° 0 mm 4 mps 750 mmHg 74%
19:00 +8°C° 0 mm 3 mps 751 mmHg 78%
20:00 +8°C° 0 mm 3 mps 751 mmHg 80%
21:00 +7°C° 0 mm 3 mps 751 mmHg 82%
22:00 +7°C° 0 mm 3 mps 751 mmHg 83%
23:00 +7°C° 0 mm 3 mps 751 mmHg 85%

25 October, Sunday

Time Temperature Precipitation Wind Pressure Humidity
00:00 +6°C° 0 mm 2 mps 751 mmHg 86%
01:00 +6°C° 0 mm 2 mps 751 mmHg 88%
02:00 +6°C° 0 mm 2 mps 751 mmHg 88%
03:00 +5°C° 0 mm 2 mps 751 mmHg 89%
04:00 +5°C° 0 mm 2 mps 751 mmHg 89%
05:00 +5°C° 0 mm 2 mps 751 mmHg 89%
06:00 +5°C° 0 mm 2 mps 751 mmHg 89%
07:00 +5°C° 0 mm 2 mps 751 mmHg 89%
08:00 +5°C° 0 mm 3 mps 751 mmHg 84%
09:00 +8°C° 0 mm 3 mps 751 mmHg 79%
10:00 +9°C° 0 mm 3 mps 751 mmHg 75%
11:00 +11°C° 0 mm 4 mps 751 mmHg 71%
12:00 +12°C° 0 mm 4 mps 750 mmHg 68%
13:00 +13°C° 0 mm 4 mps 750 mmHg 64%
14:00 +12°C° 0 mm 4 mps 750 mmHg 67%
15:00 +12°C° 0 mm 3 mps 749 mmHg 69%
16:00 +11°C° 0 mm 3 mps 749 mmHg 72%
17:00 +11°C° 0 mm 3 mps 749 mmHg 75%
18:00 +10°C° 0 mm 3 mps 748 mmHg 79%
19:00 +9°C° 0 mm 3 mps 748 mmHg 83%
20:00 +9°C° 0 mm 3 mps 748 mmHg 84%
21:00 +9°C° 0 mm 3 mps 748 mmHg 85%
22:00 +8°C° 0 mm 3 mps 748 mmHg 86%
23:00 +8°C° 0 mm 3 mps 748 mmHg 87%

26 October, Monday

Time Temperature Precipitation Wind Pressure Humidity
00:00 +8°C° 0 mm 3 mps 748 mmHg 89%
01:00 +8°C° 0 mm 3 mps 747 mmHg 90%
02:00 +7°C° 0 mm 3 mps 747 mmHg 90%
03:00 +7°C° 0 mm 3 mps 747 mmHg 90%
04:00 +7°C° 0 mm 3 mps 747 mmHg 90%
05:00 +7°C° 0 mm 3 mps 747 mmHg 90%
06:00 +5°C° 0 mm 3 mps 747 mmHg 90%
07:00 +5°C° 0 mm 3 mps 747 mmHg 89%
08:00 +7°C° 0 mm 3 mps 747 mmHg 85%
09:00 +8°C° 0 mm 3 mps 747 mmHg 80%
10:00 +10°C° 0 mm 3 mps 747 mmHg 75%
11:00 +10°C° 0 mm 3 mps 746 mmHg 73%
12:00 +11°C° 0 mm 3 mps 746 mmHg 70%
13:00 +12°C° 0 mm 3 mps 746 mmHg 67%
14:00 +12°C° 0 mm 3 mps 746 mmHg 70%
15:00 +11°C° 0 mm 3 mps 746 mmHg 72%
16:00 +12°C° 0 mm 2 mps 746 mmHg 75%
17:00 +12°C° 0.1 mm 2 mps 746 mmHg 77%
18:00 +10°C° 0.1 mm 2 mps 746 mmHg 79%
19:00 +10°C° 0.1 mm 2 mps 746 mmHg 81%
20:00 +10°C° 0.4 mm 2 mps 747 mmHg 85%
21:00 +10°C° 0.4 mm 2 mps 747 mmHg 89%
22:00 +11°C° 0.4 mm 1 mps 747 mmHg 93%
23:00 +11°C° 0.3 mm 1 mps 747 mmHg 94%

27 October, Tuesday

Time Temperature Precipitation Wind Pressure Humidity
00:00 +11°C° 0.3 mm 1 mps 747 mmHg 95%
01:00 +10°C° 0.3 mm 0 mps 748 mmHg 96%
02:00 +11°C° 0 mm 1 mps 748 mmHg 96%
03:00 +11°C° 0 mm 1 mps 748 mmHg 96%
04:00 +11°C° 0 mm 1 mps 748 mmHg 96%
05:00 +10°C° 0 mm 1 mps 749 mmHg 96%
06:00 +10°C° 0 mm 1 mps 749 mmHg 96%
07:00 +10°C° 0 mm 1 mps 750 mmHg 96%
08:00 +11°C° 0 mm 1 mps 750 mmHg 93%
09:00 +11°C° 0 mm 1 mps 750 mmHg 91%
10:00 +12°C° 0 mm 2 mps 751 mmHg 89%
11:00 +12°C° 0 mm 2 mps 751 mmHg 86%
12:00 +12°C° 0 mm 2 mps 751 mmHg 84%
13:00 +13°C° 0 mm 2 mps 751 mmHg 82%
14:00 +13°C° 0 mm 2 mps 751 mmHg 83%
15:00 +12°C° 0 mm 2 mps 751 mmHg 85%
16:00 +12°C° 0 mm 2 mps 751 mmHg 86%
17:00 +10°C° 0 mm 2 mps 752 mmHg 88%
18:00 +10°C° 0 mm 2 mps 752 mmHg 90%
19:00 +9°C° 0 mm 2 mps 752 mmHg 93%
20:00 +9°C° 0 mm 2 mps 752 mmHg 92%
21:00 +8°C° 0 mm 3 mps 752 mmHg 92%
22:00 +8°C° 0 mm 3 mps 752 mmHg 92%
23:00 +8°C° 0 mm 3 mps 752 mmHg 92%
Show more